Location: Bavendorf
(47.7602°N, 9.5406°E)
Time: 19:56:57
(UTC+00:00)

Daily predictions for brighter satellites

Satellite Brightness Start Highest point End
(mag) Time Altitude Azimuth Time Altitude Azimuth Time Altitude Azimuth
ATLAS 5 CENTAUR R/B 2.1 16:08:54 10° NW 16:13:16 73° SW 16:18:42 10° SSE
Cosmos 1802 Rocket 4.3 16:11:16 10° SSW 16:17:42 79° W 16:24:09 10° N
Cosmos 2344 4.4 16:11:17 10° NW 16:18:04 34° NNE 16:26:21 10° E
Iridium 4 Rocket 3.8 16:14:21 10° SSW 16:19:20 66° W 16:23:56 10° N
SAR-Lupe-4 4.0 16:16:32 10° SE 16:19:53 39° ENE 16:23:16 10° N
ISS -3.5 16:24:36 10° SW 16:27:53 59° SSE 16:30:57 12° ENE
CZ-2D R/B 3.2 16:26:12 10° SE 16:29:09 38° ENE 16:32:07 10° N
Cosmos 407 Rocket 3.7 16:25:22 10° S 16:30:21 50° ESE 16:35:19 10° NNE
COSMOS 2406 4.2 16:25:45 10° N 16:30:25 25° NE 16:35:05 10° E
Cosmos 1833 Rocket 3.5 16:25:00 10° NW 16:30:32 58° WSW 16:36:03 10° S
Cosmos 1484 Rocket 3.7 16:27:56 10° S 16:31:20 47° W 16:34:47 10° NNW
Cosmos 2016 Rocket 4.3 16:25:19 10° SSW 16:31:37 74° W 16:38:01 10° N
Cosmos 1812 3.3 16:30:04 10° SE 16:32:18 20° E 16:34:33 10° NE
IRS-P3 4.4 16:29:16 10° SE 16:34:19 46° ENE 16:39:24 10° N
TIMED 4.4 16:30:17 10° SSW 16:34:32 85° ESE 16:38:50 10° NNE
Tsikada Rocket 4.2 16:29:23 10° N 16:35:50 84° W 16:42:11 10° S
Cosmos 2084 Rocket 4.5 16:35:46 10° WSW 16:39:42 39° NW 16:43:41 10° NNE
SMAP 3.0 16:36:47 10° SSE 16:41:26 84° ENE 16:46:07 10° NNW
Cosmos 44 Rocket 3.6 16:38:44 10° SSW 16:43:18 48° ESE 16:47:38 12° NE
Cosmos 540 Rocket 3.4 16:40:00 10° NNW 16:45:08 70° ENE 16:50:13 10° SSE
SJ 16-02 2.5 16:42:10 10° SSE 16:45:32 23° E 16:47:54 15° ENE
SPOT 1/Viking Rocket 4.1 16:41:35 10° SE 16:46:14 35° ENE 16:50:56 10° N
Cosmos 1869 2.9 16:43:47 10° S 16:47:15 60° E 16:50:43 10° NNE
YAOGAN 1 3.6 16:44:46 10° ESE 16:48:08 23° ENE 16:51:31 10° NNE
IGS 5A 4.3 16:44:46 10° S 16:48:38 51° W 16:52:32 10° NNW
SL-16 R/B 3.3 16:46:49 10° N 16:52:56 56° WNW 16:59:00 10° SW
Cosmos 1763 Rocket 3.5 16:48:20 10° NNW 16:53:35 86° WSW 16:58:43 10° SSE
Landsat 7 3.7 16:48:57 10° SSE 16:53:36 81° ENE 16:58:17 10° NNW
Spot 4 Rocket 4.5 16:52:34 10° SE 16:57:12 37° ENE 17:01:52 10° N
Nadezhda 4 Rocket 4.3 16:52:55 10° N 16:58:55 44° ENE 17:04:50 10° SE
RESURS DK-1 2.5 16:55:17 10° NNW 16:59:18 75° WSW 17:03:16 10° SSE
Timation 1 Rocket 4.4 16:53:19 10° NNW 16:59:19 88° WSW 17:05:17 10° SSE
Cosmos 1140 Rocket 4.3 16:54:25 10° SW 16:59:27 52° WNW 17:04:30 10° NNE
Aureole 3 Rocket 2.3 16:57:21 10° S 17:00:17 51° E 17:03:28 10° NNE
CZ-4C R/B 3.9 16:58:04 10° WNW 17:01:58 22° NNW 17:06:39 10° NNE
Resurs 1-3 4.3 16:58:40 10° SE 17:02:23 30° ENE 17:06:09 10° N
CZ-4 R/B 4.5 17:01:40 10° SSE 17:05:29 49° ENE 17:09:20 10° N
SJ-6F 4.2 17:01:38 10° SSE 17:05:32 78° ENE 17:09:28 10° N
UNK 4.2 17:01:27 10° N 17:06:00 62° WNW 17:10:32 10° SSW
Cosmos 304 Rocket 4.5 17:04:14 10° SSE 17:08:25 32° ESE 17:10:27 22° ENE
Cosmos 1400 Rocket 3.3 17:06:15 10° SSE 17:09:42 34° E 17:11:08 25° NE
SJ-12 4.1 17:06:15 10° S 17:10:01 66° WSW 17:13:49 10° NNW
Cosmos 371 Rocket 4.0 17:05:50 10° SSE 17:10:04 32° ESE 17:12:04 23° ENE
Cosmos 1536 Rocket 3.7 17:08:12 10° N 17:12:32 51° ENE 17:16:48 10° SSE
SAR-Lupe-3 4.2 17:13:47 14° N 17:15:52 60° WNW 17:18:28 10° SSW
Helios 1A Rocket 3.5 17:16:48 27° ESE 17:16:48 27° ESE 17:19:11 10° SSE
Okean 2 Rocket 3.4 17:12:55 10° SSE 17:17:03 41° E 17:20:03 17° NNE
Cosmos 489 Rocket 4.4 17:13:12 10° NNW 17:19:25 61° ENE 17:25:33 10° SE
NOAA 6 4.3 17:20:33 10° SE 17:25:22 42° ENE 17:30:11 10° N
SL-12 R/B(2) 4.4 17:18:35 10° SW 17:26:37 83° NW 17:35:47 13° NE
Resurs 01 Rocket 3.4 17:30:11 17° NNE 17:30:11 17° NNE 17:31:29 10° N
COSMO-SKYMED 1 2.7 17:26:49 33° NE 17:28:07 44° E 17:32:04 10° S
Cosmos 1943 Rocket 2.5 17:24:23 10° SW 17:29:59 67° WNW 17:35:17 11° NNE
Timation 2 Rocket 4.5 17:24:31 10° SW 17:31:23 69° WNW 17:38:13 10° NNE
Cosmos 2251 Rocket 3.5 17:28:35 10° SSW 17:33:52 87° WNW 17:38:36 13° NNE
Cosmos 841 Rocket 3.5 17:29:09 10° NNW 17:34:22 60° ENE 17:38:54 14° SE
Cosmos 2058 3.1 17:30:31 10° NNW 17:34:28 67° W 17:38:24 10° S
SJ-7 4.0 17:31:55 10° SSE 17:35:34 69° ENE 17:39:15 10° N
BREEZE-M DEB (TANK) 2.5 17:35:14 10° W 17:37:56 83° NNW 17:39:49 37° ENE
Cosmos 2082 Rocket 2.4 17:33:57 10° NNW 17:39:33 72° WSW 17:45:07 10° SSE
ATLAS 2AS CENTAUR R/B 3.2 17:34:00 10° NW 17:40:21 39° NE 17:42:14 33° ENE
IRAS Rocket 4.1 17:37:01 10° SSE 17:42:35 85° ENE 17:48:08 10° NNW
Cosmos 2278 Rocket 2.7 17:37:57 10° SW 17:43:31 57° WNW 17:48:33 13° NNE
MOS 1 Rocket 3.9 17:40:42 10° S 17:44:54 52° W 17:49:20 10° NNW
Cosmos 1464 Rocket 4.0 17:43:21 10° S 17:49:38 83° W 17:55:55 10° N
ARIANE 5 R/B 4.4 17:45:39 10° SSW 17:49:59 30° W 17:54:23 10° NW
Cosmos 1634 Rocket 4.3 17:44:28 10° SSE 17:57:51 - NNE 17:50:01 39° E
CZ-2D R/B 3.8 17:46:31 10° S 17:50:38 65° W 17:54:50 10° NNW
Meteor 2-1 Rocket 4.3 17:45:33 10° S 17:51:20 61° E 17:57:13 10° NNE
Cosmos 2369 Rocket 3.8 17:48:15 10° SSE 17:50:09 19° SE 17:50:09 19° SE
USA 215 4.3 17:47:41 10° SSE 17:53:51 44° SW 18:00:04 10° WNW
PSLV R/B 3.4 17:52:23 10° S 17:56:25 78° WSW 18:00:28 10° NNW
Cosmos 1862 4.0 17:53:21 10° NNW 17:56:51 47° W 18:00:20 10° SSW
Cosmos 2151 Rocket 4.2 17:55:54 10° SSW 18:00:19 57° WNW 18:04:46 10° N
Cosmos 1190 Rocket 4.4 17:56:29 10° SW 18:01:44 62° WNW 18:05:26 20° NNE
Cosmos 2034 Rocket 3.9 17:57:22 10° S 18:03:34 85° E 18:09:53 10° N
ISS -2.4 18:01:30 10° W 18:03:52 36° NW 18:03:52 36° NW
Cosmos 676 Rocket 3.9 17:59:27 10° SSW 18:04:46 90° E 18:06:42 41° NNE
Okean 1 Rocket 3.2 18:02:33 10° SSW 18:06:57 74° W 18:08:25 41° N
Cosmos 1656 Rocket 3.5 18:01:58 10° SSW 18:07:27 67° ESE 18:07:59 63° E
SKYMED 2 4.4 18:03:51 13° N 18:07:36 50° WNW 18:11:47 10° SW
USA 281 3.3 18:11:28 50° ENE 18:11:51 50° NE 18:18:10 10° NNW
Sich 1 Rocket 4.0 18:08:13 10° SSW 18:12:43 65° WNW 18:14:56 29° N
Cosmos 1954 Rocket 4.5 18:08:58 10° SW 18:14:10 59° WNW 18:16:53 28° N
Cosmos 1932 4.4 18:08:35 10° SSW 18:14:55 77° SE 18:16:22 56° NE
COSMOS 2406 3.4 18:09:34 10° NNW 18:15:14 69° WSW 18:19:01 21° SSE
Cosmos 1092 Rocket 3.8 18:10:45 10° N 18:17:02 81° E 18:23:14 10° S
BlueWalker 3 4.1 18:14:37 10° SSW 18:15:40 17° SSW 18:15:40 17° SSW
Cosmos 2026 Rocket 3.9 18:15:54 10° N 18:22:01 84° W 18:28:11 10° S
Cosmos 968 Rocket 4.4 18:17:20 10° S 18:20:21 35° S 18:20:21 35° S
SJ 16-02 2.5 18:19:22 10° SW 18:23:25 40° WNW 18:24:29 34° NNW
YAOGAN 1 3.8 18:19:47 10° SSW 18:23:47 39° W 18:27:49 10° NNW
Cosmos 2344 3.9 18:25:30 10° NW 18:33:31 89° SW 18:38:34 35° SE
Meteor 2-3 Rocket 4.3 18:32:21 10° NNW 18:37:54 56° W 18:43:22 10° S
CZ-4C R/B 4.2 18:48:14 10° NW 18:51:49 19° N 18:51:49 19° N
Resurs 01 Rocket 4.3 19:07:36 14° NNW 19:07:36 14° NNW 19:08:13 10° NNW
ATLAS 2AS CENTAUR R/B 3.5 19:24:57 10° NW 19:29:41 46° WNW 19:29:41 46° WNW
